Mercury, NV

7:47 AM PDT on March 25, 2017 (GMT -0700)
Mercury

Weather History for KDRA - April, 2013

Change the Weather History Date:

Sunday, April 14, 2013

  Actual Average Record
Temperature  
Mean Temperature 68 °F 59 °F  
Max Temperature 81 °F 73 °F 92 °F (2005)
Min Temperature 54 °F 45 °F 34 °F (2012)
Degree Days  
Heating Degree Days 0    
Cooling Degree Days 2    
Growing Degree Days 18 (Base 50)    
Moisture  
Dew Point 25 °F    
Average Humidity 19    
Maximum Humidity 33    
Minimum Humidity 6    
Precipitation  
Precipitation 0.00 in 0.01 in 0.76 in (2003)
Month to date precipitation 0.18  
Year to date precipitation 2.46  
Sea Level Pressure  
Sea Level Pressure 29.50 in    
Wind  
Wind Speed 10 mph (SW)    
Max Wind Speed 22 mph    
Max Gust Speed 34 mph    
Visibility 10 miles    
Events      
T = Trace of Precipitation, MM = Missing Value Source: NWS Daily Summary

Daily Weather History Graph

Daily Weather History Graph

Search for Another Location

Airport or City:

Trip Planner

Search our weather history database for the weather conditions in past years. The results will help you decide how hot, cold, wet, or windy it might be!

Date:

Astronomy

Apr. 14, 2013 Rise Set
Actual Time 6:11 AM PDT 7:17 PM PDT
Civil Twilight 5:44 AM PDT 7:44 PM PDT
Nautical Twilight 5:12 AM PDT 8:16 PM PDT
Astronomical Twilight 4:40 AM PDT 8:49 PM PDT
Moon 8:56 AM PDT (4/14) 11:29 PM PDT (4/14)
Length of Visible Light 13h 59m
Length of Day
13h 06m
Waxing Crescent, 18% of the Moon is Illuminated
Apr 14
Waxing Crescent
Apr 18
First Quarter
Apr 25
Full
May 2
Last Quarter
May 9
New

Hourly Weather History & Observations

Time (PDT) Temp. Dew Point Humidity Pressure Visibility Wind Dir Wind Speed Gust Speed Precip Events Conditions
12:52 AM 64.9 °F 28.0 °F 25% 29.55 in 10.0 mi NNW 10.4 mph - N/A   Clear
1:52 AM 63.0 °F 28.0 °F 27% 29.55 in 10.0 mi North 8.1 mph - N/A   Clear
2:52 AM 57.0 °F 28.0 °F 33% 29.56 in 10.0 mi NW 4.6 mph - N/A   Clear
3:52 AM 55.9 °F 27.0 °F 33% 29.57 in 10.0 mi East 3.5 mph - N/A   Clear
4:52 AM 57.9 °F 25.0 °F 28% 29.58 in 10.0 mi NE 4.6 mph - N/A   Clear
5:52 AM 54.0 °F 23.0 °F 30% 29.59 in 10.0 mi Calm Calm - N/A   Clear
6:52 AM 57.9 °F 23.0 °F 26% 29.60 in 10.0 mi NNE 6.9 mph - N/A   Clear
7:52 AM 64.9 °F 21.0 °F 19% 29.61 in 10.0 mi NE 6.9 mph - N/A   Clear
8:52 AM 66.9 °F 19.0 °F 16% 29.61 in 10.0 mi NE 10.4 mph - N/A   Clear
9:52 AM 69.1 °F 18.0 °F 14% 29.61 in 10.0 mi North 9.2 mph - N/A   Clear
10:52 AM 72.0 °F 19.0 °F 13% 29.61 in 10.0 mi NNE 6.9 mph - N/A   Clear
11:52 AM 73.9 °F 19.9 °F 13% 29.58 in 10.0 mi East 4.6 mph - N/A   Clear
12:52 PM 75.9 °F 21.9 °F 13% 29.55 in 10.0 mi SSW 8.1 mph 18.4 mph N/A   Clear
1:52 PM 78.1 °F 23.0 °F 13% 29.52 in 10.0 mi WSW 15.0 mph 25.3 mph N/A   Clear
2:52 PM 79.0 °F 21.9 °F 12% 29.49 in 10.0 mi SW 12.7 mph 20.7 mph N/A   Clear
3:52 PM 80.1 °F 25.0 °F 13% 29.45 in 10.0 mi SSW 16.1 mph 33.4 mph N/A   Clear
4:52 PM 79.0 °F 27.0 °F 15% 29.42 in 10.0 mi South 19.6 mph 27.6 mph N/A   Clear
5:52 PM 78.1 °F 28.9 °F 17% 29.40 in 10.0 mi SSW 17.3 mph 32.2 mph N/A   Clear
6:52 PM 75.9 °F 28.9 °F 18% 29.37 in 10.0 mi SSW 20.7 mph 28.8 mph N/A   Clear
7:52 PM 73.9 °F 28.0 °F 18% 29.34 in 10.0 mi South 18.4 mph 28.8 mph N/A   Clear
8:52 PM 73.0 °F 28.9 °F 20% 29.35 in 10.0 mi SSW 21.9 mph 34.5 mph N/A   Clear
9:33 PM 71.6 °F 28.4 °F 20% 29.49 in 10.0 mi WSW 15.0 mph 29.9 mph N/A   Clear
9:52 PM 71.1 °F 28.9 °F 21% 29.37 in 10.0 mi SW 13.8 mph 24.2 mph N/A   Clear
10:52 PM 68.0 °F 28.0 °F 22% 29.39 in 10.0 mi WSW 16.1 mph - N/A   Clear
11:52 PM 66.9 °F 28.0 °F 23% 29.37 in 10.0 mi WSW 15.0 mph - N/A   Clear